Weather History for New Ulm, MN

Change the Weather History Date:

Sunday, July 7, 2013

  Actual Average Record
Temperature  
Mean Temperature 78 °F -  
Max Temperature 87 °F 85 °F 103 °F (1948)
Min Temperature 68 °F 63 °F 46 °F (1984)
Cooling Degree Days 12    
Growing Degree Days 28 (Base 50)    
Moisture  
Dew Point 68 °F    
Average Humidity 72    
Maximum Humidity 100    
Minimum Humidity 55    
Precipitation  
Precipitation 0.35 in - - ()
Sea Level Pressure  
Sea Level Pressure 29.85 in    
Wind  
Wind Speed 5 mph (SSW)    
Max Wind Speed 15 mph    
Max Gust Speed 20 mph    
Visibility 10 miles    
Events Rain , Thunderstorm    
Averages and records for this station are not official NWS values.
T = Trace of Precipitation, MM = Missing Value Source: NWS Daily Summary

Daily Weather History Graph

Daily Weather History Graph

Search for Another Location

Airport:

Trip Planner

Search our weather history database for the weather conditions in past years. The results will help you decide how hot, cold, wet, or windy it might be!

Date:

Astronomy

Jul. 07, 2013 Rise Set
Actual Time 5:41 AM CDT 9:03 PM CDT
Civil Twilight 5:05 AM CDT 9:39 PM CDT
Nautical Twilight 4:18 AM CDT 10:26 PM CDT
Astronomical Twilight 3:19 AM CDT 11:25 PM CDT
Moon 5:21 AM CDT (7/7) 8:25 PM CDT (7/7)
Length of Visible Light 16h 34m
Length of Day
15h 22m
Waning Crescent, 0% of the Moon is Illuminated
Jul 7
Waning Crescent
Jul 8
New
Jul 15
First Quarter
Jul 22
Full
Jul 29
Last Quarter

Hourly Weather History & Observations

Time (CDT) Temp. Heat Index Dew Point Humidity Pressure Visibility Wind Dir Wind Speed Gust Speed Precip Events Conditions
12:12 AM 75.2 °F - 66.2 °F 73% 29.84 in 10.0 mi SSE 6.9 mph - N/A   Clear
12:33 AM 75.2 °F - 66.2 °F 73% 29.84 in 10.0 mi SSE 6.9 mph - N/A   Clear
12:53 AM 75.2 °F - 66.2 °F 73% 29.84 in 10.0 mi South 5.8 mph - N/A   Clear
1:13 AM 75.2 °F - 66.2 °F 73% 29.84 in 10.0 mi South 6.9 mph - N/A   Clear
1:33 AM 75.2 °F - 66.2 °F 73% 29.83 in 10.0 mi South 6.9 mph - N/A   Clear
1:52 AM 75.2 °F - 66.2 °F 73% 29.84 in 10.0 mi South 6.9 mph - N/A   Clear
2:13 AM 75.2 °F - 66.2 °F 73% 29.84 in 10.0 mi South 9.2 mph - N/A   Clear
2:33 AM 75.2 °F - 66.2 °F 73% 29.84 in 10.0 mi South 8.1 mph - N/A   Scattered Clouds
2:52 AM 75.2 °F - 66.2 °F 73% 29.84 in 10.0 mi South 9.2 mph - N/A   Mostly Cloudy
3:13 AM 75.2 °F - 66.2 °F 73% 29.84 in 10.0 mi South 9.2 mph - N/A   Scattered Clouds
3:33 AM 73.4 °F - 66.2 °F 78% 29.84 in 10.0 mi SSW 8.1 mph - N/A   Clear
3:52 AM 73.4 °F - 66.2 °F 78% 29.84 in 10.0 mi South 8.1 mph - N/A   Clear
4:13 AM 73.4 °F - 66.2 °F 78% 29.84 in 10.0 mi South 8.1 mph - N/A   Clear
4:33 AM 71.6 °F - 64.4 °F 78% 29.84 in 10.0 mi SSW 8.1 mph - N/A   Clear
4:53 AM 71.6 °F - 64.4 °F 78% 29.84 in 10.0 mi South 5.8 mph - N/A   Clear
5:13 AM 69.8 °F - 64.4 °F 83% 29.84 in 10.0 mi South 5.8 mph - N/A   Clear
5:33 AM 69.8 °F - 64.4 °F 83% 29.84 in 10.0 mi South 3.5 mph - N/A   Clear
5:52 AM 69.8 °F - 64.4 °F 83% 29.84 in 10.0 mi Calm Calm - N/A   Clear
6:13 AM 68.0 °F - 64.4 °F 88% 29.84 in 10.0 mi South 4.6 mph - N/A   Clear
6:33 AM 68.0 °F - 64.4 °F 88% 29.84 in 7.0 mi Calm Calm - N/A   Clear
6:52 AM 69.8 °F - 66.2 °F 88% 29.85 in 10.0 mi Calm Calm - N/A   Clear
7:13 AM 69.8 °F - 66.2 °F 88% 29.85 in 10.0 mi South 4.6 mph - N/A   Clear
7:33 AM 71.6 °F - 66.2 °F 83% 29.85 in 10.0 mi South 4.6 mph - N/A   Clear
7:53 AM 71.6 °F - 66.2 °F 83% 29.86 in 10.0 mi South 5.8 mph - N/A   Clear
8:13 AM 73.4 °F - 66.2 °F 78% 29.86 in 10.0 mi South 6.9 mph - N/A   Clear
8:33 AM 75.2 °F - 66.2 °F 73% 29.86 in 10.0 mi SW 9.2 mph - N/A   Clear
8:53 AM 75.2 °F - 66.2 °F 73% 29.86 in 10.0 mi SSW 8.1 mph - N/A   Clear
9:13 AM 77.0 °F - 66.2 °F 69% 29.85 in 10.0 mi SSW 8.1 mph - N/A   Clear
9:33 AM 78.8 °F - 66.2 °F 65% 29.85 in 10.0 mi SW 5.8 mph - N/A   Clear
9:53 AM 78.8 °F - 66.2 °F 65% 29.85 in 10.0 mi SW 8.1 mph - N/A   Clear
10:13 AM 78.8 °F - 66.2 °F 65% 29.85 in 10.0 mi WSW 4.6 mph - N/A   Clear
10:32 AM 80.6 °F 83.2 °F 68.0 °F 65% 29.85 in 10.0 mi SW 5.8 mph - N/A   Clear
10:53 AM 80.6 °F 82.7 °F 66.2 °F 61% 29.85 in 10.0 mi SW 4.6 mph - N/A   Clear
11:13 AM 80.6 °F 82.7 °F 66.2 °F 61% 29.85 in 10.0 mi Calm Calm - N/A   Clear
11:32 AM 80.6 °F 83.2 °F 68.0 °F 65% 29.86 in 10.0 mi Calm Calm - N/A   Clear
11:53 AM 82.4 °F 85.4 °F 68.0 °F 62% 29.86 in 10.0 mi Calm Calm - N/A   Clear
12:13 PM 82.4 °F 85.4 °F 68.0 °F 62% 29.85 in 10.0 mi Calm Calm - N/A   Clear
12:32 PM 84.2 °F 88.4 °F 69.8 °F 62% 29.86 in 10.0 mi SE 5.8 mph - N/A   Clear
12:53 PM 84.2 °F 87.3 °F 68.0 °F 58% 29.86 in 10.0 mi Calm Calm - N/A   Clear
1:13 PM 84.2 °F 88.4 °F 69.8 °F 62% 29.85 in 10.0 mi SW 5.8 mph - N/A   Clear
1:32 PM 84.2 °F 88.4 °F 69.8 °F 62% 29.85 in 10.0 mi West 4.6 mph - N/A   Clear
1:53 PM 86.0 °F 90.4 °F 69.8 °F 58% 29.85 in 10.0 mi SW 5.8 mph - N/A   Clear
2:13 PM 86.0 °F 90.4 °F 69.8 °F 58% 29.85 in 10.0 mi Calm Calm - N/A   Clear
2:32 PM 87.8 °F 93.8 °F 71.6 °F 58% 29.85 in 10.0 mi Calm Calm - N/A   Clear
2:53 PM 87.8 °F 92.6 °F 69.8 °F 55% 29.85 in 10.0 mi West 3.5 mph - N/A   Clear
3:13 PM 87.8 °F 92.6 °F 69.8 °F 55% 29.85 in 10.0 mi Calm Calm - N/A   Clear
3:32 PM 87.8 °F 93.8 °F 71.6 °F 58% 29.85 in 10.0 mi WNW 4.6 mph - N/A   Clear
3:53 PM 87.8 °F 92.6 °F 69.8 °F 55% 29.85 in 10.0 mi Calm Calm - N/A   Clear
4:13 PM 87.8 °F 92.6 °F 69.8 °F 55% 29.84 in 10.0 mi Calm Calm - N/A   Clear
4:32 PM 87.8 °F 92.6 °F 69.8 °F 55% 29.84 in 10.0 mi WNW 3.5 mph - N/A   Clear
4:53 PM 87.8 °F 92.6 °F 69.8 °F 55% 29.84 in 10.0 mi Calm Calm - N/A   Clear
5:12 PM 87.8 °F 92.6 °F 69.8 °F 55% 29.85 in 10.0 mi Calm Calm - N/A   Clear
5:33 PM 87.8 °F 92.6 °F 69.8 °F 55% 29.84 in 10.0 mi Calm Calm - N/A   Clear
5:53 PM 87.8 °F 92.6 °F 69.8 °F 55% 29.84 in 10.0 mi Calm Calm - N/A   Clear
6:12 PM 87.8 °F 93.8 °F 71.6 °F 58% 29.84 in 10.0 mi Calm Calm - N/A   Clear
6:33 PM 87.8 °F 92.6 °F 69.8 °F 55% 29.84 in 10.0 mi Calm Calm - N/A   Clear
6:53 PM 87.8 °F 92.6 °F 69.8 °F 55% 29.83 in 10.0 mi Calm Calm - N/A   Clear
7:12 PM 86.0 °F 91.8 °F 71.6 °F 62% 29.83 in 10.0 mi WNW 4.6 mph - N/A   Clear
7:33 PM 84.2 °F 89.6 °F 71.6 °F 66% 29.84 in 10.0 mi WNW 3.5 mph - N/A   Clear
7:53 PM 84.2 °F 90.9 °F 73.4 °F 70% 29.83 in 10.0 mi NW 4.6 mph - N/A Thunderstorm Thunderstorm
8:12 PM 80.6 °F 82.7 °F 66.2 °F 61% 29.85 in 10.0 mi North 9.2 mph - N/A Thunderstorm Thunderstorm
8:33 PM 75.2 °F - 66.2 °F 73% 29.87 in 10.0 mi NE 9.2 mph 17.3 mph N/A Thunderstorm Thunderstorm
8:53 PM 71.6 °F - 71.6 °F 100% 29.88 in 4.0 mi NE 15.0 mph 19.6 mph 0.34 in Rain , Thunderstorm Heavy Thunderstorms and Rain
9:12 PM 71.6 °F - 71.6 °F 100% 29.91 in 10.0 mi East 11.5 mph - 0.01 in Rain , Thunderstorm Light Thunderstorms and Rain
9:33 PM 71.6 °F - 69.8 °F 94% 29.90 in 10.0 mi East 12.7 mph - 0.01 in Thunderstorm Clear
9:53 PM 71.6 °F - 71.6 °F 100% 29.90 in 10.0 mi East 9.2 mph - 0.01 in   Clear
10:12 PM 69.8 °F - 69.8 °F 100% 29.90 in 10.0 mi SE 5.8 mph - N/A Thunderstorm Clear
10:33 PM 69.8 °F - 69.8 °F 100% 29.89 in 10.0 mi South 3.5 mph - N/A   Clear
10:53 PM 69.8 °F - 69.8 °F 100% 29.89 in 10.0 mi SW 6.9 mph - N/A   Clear
11:12 PM 69.8 °F - 69.8 °F 100% 29.89 in 10.0 mi Calm Calm - N/A   Clear
11:33 PM 69.8 °F - 69.8 °F 100% 29.90 in 10.0 mi NNW 3.5 mph - N/A   Clear
11:53 PM 69.8 °F - 69.8 °F 100% 29.90 in 10.0 mi Calm Calm - N/A   Clear